Lid_Strength_Index
4 4 4 5 6 6 7 7 7 4 6 8 10 10 10 11 9 7 8 8 9 9 10 9 10 10 9 7 8 9 8 8 9 9 8 8 8 9 9 11 12 10 11 10
4 4 4 5 6 6 7 8 8 4 7 10 10 10 10 9 9 9 9 9 9 8 9 10 9 9 7 7 6 8 8 9 11 10 8 7 8 8 8 9 9 11 11 10
4 4 4 5 5 5 7 7 9 8 8 10 10 10 11 10 9 9 8 8 8 8 9 8 9 9 8 7 6 6 7 9 10 11 10 9 9 9 9 9 10 10 10 9
4 4 4 4 5 6 7 7 9 10 10 9 10 9 10 10 10 9 7 8 8 8 9 9 9 9 8 7 7 8 8 10 9 9 9 9 9 9 9 9 9 11 10 11
4 4 4 5 5 6 7 8 9 9 10 11 10 11 10 10 11 9 10 9 9 8 9 9 10 9 8 8 7 8 8 10 9 10 9 9 9 8 9 10 11 11 11 11
4 4 4 5 6 7 7 7 7 8 11 10 11 10 10 10 9 8 8 8 9 9 8 7 7 7 7 7 8 8 8 9 10 11 9 9 11 10 11 11 10 11 13 10
4 4 4 5 6 7 7 6 7 9 10 10 10 10 10 10 9 9 8 8 8 7 6 6 6 7 7 7 7 7 9 9 9 11 10 14 10 8 9 10 10 9 9 9
3 4 4 5 6 7 8 6 7 8 10 9 10 10 10 9 7 7 8 7 6 5 6 8 9 9 9 8 7 8 7 8 10 12 11 10 10 10 10 11 11 8 9 8
3 3 3 5 5 6 7 8 7 7 10 10 9 10 8 8 9 8 7 5 4 5 6 8 12 12 11 11 10 7 8 8 9 11 13 14 10 9 7 8 14 8 8 8
3 3 3 4 5 6 7 8 6 6 8 8 9 9 8 7 8 7 6 6 6 5 9 11 11 12 10 12 13 12 11 10 11 11 12 10 9 7 7 15 13 8 7 7
4 3 3 4 5 4 7 7 6 6 7 9 8 6 7 7 6 7 6 7 6 7 10 11 11 11 11 11 10 11 12 12 11 10 12 13 7 8 12 9 7 7 7 7
3 4 4 4 4 4 6 7 6 5 7 8 5 5 5 4 3 5 6 6 7 6 9 10 9 11 10 11 13 9 13 10 11 10 11 8 6 7 7 7 7 6 6 6
4 3 4 5 4 4 6 7 6 6 7 7 6 6 4 2 3 2 5 5 4 5 6 7 8 11 8 12 11 10 9 7 10 10 8 8 7 7 7 8 6 6 5 5
4 4 4 4 4 5 6 6 6 6 7 9 6 3 3 3 2 3 3 4 5 5 5 7 8 9 7 9 9 9 8 8 10 9 7 7 6 6 8 8 6 5 5 4
4 5 4 4 5 6 6 7 6 6 6 7 6 4 4 4 3 4 3 3 4 5 6 7 9 7 7 7 7 9 7 8 11 11 7 8 7 7 6 8 6 6 5 5
4 4 4 5 5 5 6 7 5 4 3 4 7 5 5 4 3 4 4 4 5 6 6 7 7 7 7 10 11 7 6 5 5 7 6 6 6 5 5 5 6 5 4 4
4 5 5 5 6 5 6 7 4 4 2 4 8 7 5 4 3 3 3 3 4 4 6 6 7 7 7 8 11 7 5 5 5 5 6 7 6 5 4 5 5 4 3 3
4 5 5 5 5 5 5 3 2 2 3 4 8 8 6 4 5 6 4 5 4 5 6 6 7 8 7 11 7 6 5 5 5 5 4 5 5 5 4 4 4 4 5 4
5 5 5 4 4 5 4 2 2 2 3 7 7 9 10 5 5 5 5 4 8 5 7 7 7 9 11 8 6 6 5 6 6 6 6 5 6 6 4 4 4 5 5 4
5 5 6 6 4 2 2 3 4 4 5 5 7 6 8 5 6 7 7 6 9 11 8 6 9 9 6 7 6 6 6 6 7 7 7 5 5 5 5 4 3 3 3 4
3 4 5 3 3 3 4 7 7 7 8 6 6 6 7 5 7 8 6 9 8 12 10 10 11 11 7 7 6 6 5 5 6 5 5 4 4 5 5 5 4 3 3 3
3 3 3 3 4 6 8 9 8 9 9 6 7 6 5 6 4 7 7 9 9 12 7 10 12 8 7 7 7 6 6 5 5 5 5 5 4 4 4 3 3 3 2 3
1 3 5 6 7 11 11 13 11 10 7 6 6 7 6 5 5 7 8 11 11 7 11 12 9 7 7 6 6 6 5 5 5 5 4 5 5 4 4 3 3 2 3 4
5 7 11 9 10 9 9 9 8 6 6 6 7 7 7 6 8 8 11 9 9 13 14 13 8 7 7 6 6 6 6 6 6 6 5 5 5 5 4 4 4 5 5 4
7 7 12 10 7 7 7 6 6 6 5 6 7 8 7 9 10 9 10 12 14 13 14 9 7 7 7 7 6 5 5 5 5 5 6 5 5 5 5 4 4 4 4 5
6 7 9 7 8 8 7 6 7 5 5 5 6 9 10 11 10 12 13 13 14 11 8 8 7 7 7 6 6 5 4 4 5 5 5 5 5 5 5 5 4 4 5 4
7 8 6 7 7 8 7 6 6 4 6 9 9 11 12 10 12 12 10 11 9 7 8 8 6 7 6 5 5 5 4 4 4 4 4 5 5 4 5 5 4 4 4 4